Content
SEND FEEDBACK

Daily
Averages
Monthly
Summary
United States of America

ESKRIDGE, KANSAS


Home > North America > United States > Kansas
Elevation: 1350 feet     Latitude: 38 51N     Longitude: 096 06W

WEATHER
 
SELECT A DAY
Number of Records: 192,225;   Date Range: 1/1/95 - 12/24/14
 
SHARE

PRINT THIS DATA

[ ← Previous Day ]
WEATHER ALMANAC - FEBRUARY 13, 2013
[ Next Day → ]
[ °C ]   °F
Weather ElementAverageHighLow
Temperature34.4 °F55.9 °F (1:53 pm) (8:53 pm)
Dewpoint19.6 °F26.1 °F (8:53 am) (7:00 pm)
Humidity56.1 %85 % (2:53 am)27 % (1:53 pm)
Barometer29.89 in29.96 in (1:53 am)29.82 in (8:53 pm)
Wind Speed9.3 mph19.6 mph (2:53 pm)
Wind Gust26.5 mph (3:53 pm)
Weather ElementAverage
Visibility10 mi
Wind DirectionSSW (213 °)

Weather ElementTotal
Precipitation---
Heating Degree Days37.1 (Base 65)
Averaged from 23 records on February 13, 2013
WEATHER CONDITIONS BREAKOUT
WIND DIRECTION BREAKOUT
WEATHER BY HOUR - FEBRUARY 13, 2013
[ °C ]   °F
Local TimeTemperatureDewpointHumidityBarometerVisibilityWind DirectionWind SpeedGust SpeedPrecipitationEventsConditions
1:53 AM27.0 °F21.9 °F81 %29.96 in10.0 miSW (230°)4.6 mphClear
2:53 AM25.0 °F21.0 °F85 %29.94 in10.0 miCalmClear
3:53 AM26.1 °F21.9 °F84 %29.93 in10.0 miWest (260°)6.9 mphClear
4:53 AM24.1 °F19.9 °F84 %29.93 in10.0 miWest (270°)3.5 mphClear
5:53 AM26.1 °F21.0 °F81 %29.93 in10.0 miWest (280°)8.1 mphClear
6:53 AM25.0 °F19.9 °F81 %29.93 in10.0 miWSW (250°)3.5 mphClear
7:53 AM25.0 °F21.0 °F85 %29.93 in10.0 miSW (230°)3.5 mphClear
8:53 AM33.1 °F26.1 °F75 %29.94 in10.0 miSW (230°)4.6 mphClear
9:53 AM41.0 °F25.0 °F53 %29.93 in10.0 miWest (280°)8.1 mphClear
10:53 AM45.0 °F25.0 °F46 %29.93 in10.0 miWest (270°)11.5 mphClear
11:53 AM50.0 °F24.1 °F36 %29.92 in10.0 miWest (270°)13.8 mphClear
12:53 PM53.1 °F23.0 °F31 %29.88 in10.0 miWSW (250°)15.0 mphClear
1:53 PM55.9 °F21.9 °F27 %29.85 in10.0 miWest (260°)18.4 mphClear
2:53 PM55.9 °F24.1 °F29 %29.83 in10.0 miWest (280°)19.6 mphClear
3:53 PM55.0 °F23.0 °F29 %29.83 in10.0 miWest (280°)17.3 mph26.5 mphClear
4:53 PM54.0 °F21.9 °F29 %29.83 in10.0 miWest (280°)16.1 mph21.9 mphClear
5:53 PM50.0 °F21.9 °F33 %29.84 in10.0 miWest (270°)10.4 mphClear
6:53 PM43.0 °F21.0 °F42 %29.84 in10.0 miSW (230°)6.9 mphClear
7:53 PM41.0 °F23.0 °F49 %29.85 in10.0 miSW (230°)8.1 mphClear
8:53 PM0.0 °F0.0 °F29.82 inNorth
9:53 PM0.0 °F0.0 °F29.83 inNorth
10:53 PM0.0 °F0.0 °F29.83 inNorth
11:53 PM36.0 °F24.1 °F62 %29.86 in10.0 miWSW (250°)6.9 mphClear
Hourly data recorded from KFOE, located miles away from Eskridge, Kansas







STORIES FROM OUR PARTNERS